STARLINK-32784 (62607 NORAD) Tracking and Keplerian Element Data

This shows tracking and keplerian element data for the satellite.

Feedback or suggestion? Click here.




ElementValue
Catalog62607
NameSTARLINK-32784
Epoch Orbit462
Epoch Day34.83335648
Epoch Year2025
RAAN13.822
Inclination43.0003
Eccentricity0.0001866
Argument of Perigee261.6809
Mean Anonmoly170.9571
Mean Motion15.50580023
Decay Rate-5.8E-05
L11 62607U 25008W 25034.83335648 -.00005800 00000+0 -93099-4 0 9998
L22 62607 43.0003 13.8220 0001866 261.6809 170.9571 15.50580023 4623



Live tracking and technical data element details for STARLINK-32784 (NORAD 62607). STARLINK-32784 can be tracked NOW for your location showing map with azimuth and elevation plus other details from your city location.







IsCatalogInMostPopularTable: catalog: 62607, numindb: 4
Update: records affected: 1



GetName: 62607 STARLINK-32784

Hit Count: updated at: Sun, 09 Feb 2025 14:11:17 GMT